This is the latest recevied weather packets stored in our database for station/object KO4LCK. If no packets are shown the sender has not sent any weather packets the latest 10 day(s).
| Time | Temp. | Humidity | Pressure | Rain* | Wind** | Luminosity | Snow |
|---|---|---|---|---|---|---|---|
| 1778013026 | 27.22° C | 33% | 1013.8 hPa | 0 mm | - | 541 W/m² | - |
| 1778012722 | 26.67° C | 33% | 1013.9 hPa | 0 mm | - | 587 W/m² | - |
| 1778012418 | 27.22° C | 34% | 1013.7 hPa | 0 mm | - | 440 W/m² | - |
| 1778012115 | 27.78° C | 31% | 1013.9 hPa | 0 mm | - | 485 W/m² | - |
| 1778011813 | 27.22° C | 35% | 1014 hPa | 0 mm | - | 609 W/m² | - |
| 1778011511 | 27.22° C | 34% | 1014.1 hPa | 0 mm | - | 654 W/m² | - |
| 1778011207 | 27.22° C | 35% | 1014 hPa | 0 mm | - | 663 W/m² | - |
| 1778010903 | 27.22° C | 34% | 1014.3 hPa | 0 mm | - | 678 W/m² | - |
| 1778010601 | 27.78° C | 35% | 1014 hPa | 0 mm | - | 691 W/m² | - |
| 1778010298 | 27.78° C | 34% | 1014.1 hPa | 0 mm | - | 703 W/m² | - |
| 1778009992 | 27.78° C | 34% | 1014.2 hPa | 0 mm | - | 714 W/m² | - |
| 1778009690 | 27.22° C | 35% | 1014.3 hPa | 0 mm | - | 723 W/m² | - |
| 1778009387 | 27.22° C | 33% | 1014.4 hPa | 0 mm | - | 731 W/m² | - |
| 1778009086 | 27.22° C | 35% | 1014.5 hPa | 0 mm | - | 745 W/m² | - |
| 1778008782 | 26.67° C | 35% | 1014.7 hPa | 0 mm | - | 755 W/m² | - |
| 1778008481 | 27.78° C | 36% | 1014.7 hPa | 0 mm | - | 738 W/m² | - |
| 1778008177 | 27.22° C | 36% | 1014.8 hPa | 0 mm | - | 771 W/m² | - |
| 1778007873 | 26.67° C | 34% | 1014.9 hPa | 0 mm | - | 792 W/m² | - |
| 1778007569 | 26.11° C | 36% | 1014.9 hPa | 0 mm | - | 852 W/m² | - |
| 1778007266 | 26.11° C | 38% | 1014.7 hPa | 0 mm | - | 494 W/m² | - |
| 1778006962 | 26.11° C | 36% | 1014.8 hPa | 0 mm | - | 662 W/m² | - |
| 1778006659 | 26.67° C | 35% | 1014.8 hPa | 0 mm | - | 618 W/m² | - |
| 1778006356 | 26.11° C | 34% | 1015 hPa | 0 mm | - | 743 W/m² | - |
| 1778006053 | 25.56° C | 34% | 1014.8 hPa | 0 mm | - | 817 W/m² | - |
| 1778005749 | 26.11° C | 34% | 1014.9 hPa | 0 mm | - | 388 W/m² | - |
* Rain latest hour (hover to see other rain measurements)
** Current wind speed in m/s (hover to see current wind gust speed)